[[{"header":{"parameterUnit":"m.s-1","parameterCategory":2,"la1":30.2991,"la2":30.254,"lo1":-89.0895,"lo2":-89.0444,"dy":0.0017,"dx":0.0017,"nx":28,"ny":28,"refTime":"2024-08-05T03:00:00:Z","depth":"0","parameterNumber":2,"parameterNumberName":"U-component_of_CURRENTS"},"data":[0,0,0,0,0,0,0,0,0,0,0,0,0,0,0,0,0,0,0,0,0,0,0,0,0,0,0,0,0,0,0,0,0,0,0,0,0,0,0,0,0,0,0,0,0,0,0,0,0,0,0,0,0,0,0,0,0,0,0.357,0.357,0,0.363,0.3631,0.3632,0.367,0.367,0.367,0.367,0.3717,0.3718,0.3719,0,0,0,0,0,0,0,0,0,0,0,0,0,0.3573,0.3573,0.3569,0.357,0.3571,0.363,0.3631,0.3632,0.367,0.367,0.367,0.367,0.3716,0.3718,0.3719,0,0,0,0,0,0,0,0,0,0,0,0,0,0.3599,0.3572,0.3569,0.3595,0.3598,0.363,0.3631,0.3632,0.367,0.367,0.367,0.367,0.3716,0.3718,0.3719,0.3731,0,0,0.3725,0.3726,0,0,0,0,0,0,0,0,0.3597,0.3599,0.3591,0.3593,0.3596,0.364,0.3649,0.3664,0.367,0.3646,0.367,0.367,0.3688,0.3692,0.3708,0.3734,0.3736,0.3725,0.3726,0.3727,0.3728,0,0,0,0,0,0,0,0.3595,0.3597,0.3596,0.3591,0.3595,0.3633,0.3636,0.3653,0.3668,0.3648,0.365,0.3653,0.369,0.3706,0.3709,0.3736,0.3725,0.3727,0.3728,0.3729,0.3809,0.381,0,0,0,0,0,0,0.3578,0.3595,0.3594,0.3598,0.3594,0.3632,0.3636,0.3628,0.3668,0.3674,0.3653,0.3654,0.3703,0.3707,0.3711,0.3769,0.3727,0.3729,0.373,0.3808,0.3809,0.381,0,0,0,0,0,0,0.3577,0.3577,0.3592,0.3596,0.3601,0.3631,0.3623,0.363,0.3649,0.3672,0.3677,0.3665,0.3703,0.3708,0.3736,0.3769,0.373,0.3732,0.3807,0.3808,0.381,0.3859,0,0,0,0,0,0,0.3577,0.3576,0.358,0.3595,0.3599,0.3623,0.3623,0.3631,0.3649,0.3652,0.3684,0.3688,0.3703,0.3733,0.3738,0.3771,0.3733,0.3805,0.3807,0.3809,0.3856,0.3862,0.3867,0,0,0,0,0,0.3577,0.3601,0.3579,0.358,0.3598,0.3624,0.3631,0.3655,0.3649,0.367,0.3686,0.3688,0.3749,0.3735,0.3741,0.3775,0.3804,0.3807,0.3809,0.3853,0.3861,0.3867,0,0,0,0,0,0,0.3634,0.3607,0.3584,0.3604,0.3608,0.363,0.3662,0.3655,0.3684,0.369,0.3698,0.3705,0.3748,0.3747,0.3732,0.3803,0.3778,0.3781,0.381,0.3817,0.3822,0.3847,0.3735,0,0,0,0,0,0.3634,0.3623,0.3614,0.3628,0.3635,0.3639,0.3655,0.366,0.368,0.3693,0.3708,0.373,0.3761,0.3775,0.3802,0.3833,0.389,0.3858,0.3864,0.3869,0.3892,0.4015,0.4036,0.3818,0.3818,0.3817,0,0,0.3658,0.3642,0.3637,0.3635,0.3645,0.3669,0.3651,0.3681,0.3703,0.3692,0.374,0.3752,0.3774,0.3821,0.3839,0.3823,0.3959,0.3872,0.3876,0.3897,0.402,0.4042,0.4061,0.3819,0.3819,0.3819,0,0,0.371,0.3687,0.3699,0.37,0.3704,0.3706,0.3709,0.3724,0.3739,0.3762,0.3776,0.3805,0.3833,0.3871,0.3888,0.3935,0.3988,0.3938,0.3985,0.4105,0.4125,0.4143,0.4243,0.4269,0.3937,0.3937,0.3937,0,0.3745,0.3753,0.3715,0.3735,0.376,0.372,0.3768,0.3766,0.3786,0.3826,0.3783,0.3881,0.3864,0.3966,0.3959,0.3952,0.4027,0.3958,0.4116,0.4135,0.4153,0.4251,0.428,0.3939,0.3939,0.3939,0.3939,0,0.3802,0.3814,0.3835,0.3829,0.3848,0.3885,0.3872,0.389,0.3882,0.3897,0.3983,0.3976,0.4046,0.4028,0.399,0.4116,0.4131,0.4115,0.4106,0.4179,0.4276,0.4305,0.3943,0.3942,0.3941,0.3941,0,0,0.3875,0.3876,0.3879,0.3899,0.3909,0.3929,0.397,0.4024,0.4074,0.4074,0.4175,0.4176,0.4188,0.4207,0.4193,0.4246,0.4385,0.422,0.4225,0.433,0.4664,0.46,0.4626,0.4414,0.4419,0.4423,0.4681,0,0.3944,0.399,0.3984,0.4046,0.4086,0.4078,0.4127,0.4159,0.4178,0.4249,0.4267,0.4345,0.4256,0.4295,0.4342,0.4385,0.4466,0.4317,0.4568,0.4575,0.452,0.4659,0.443,0.4635,0.471,0.4715,0.4718,0,0.4015,0.4034,0.4113,0.4167,0.4189,0.4216,0.4307,0.4343,0.442,0.4451,0.4535,0.4551,0.4642,0.4534,0.4706,0.4626,0.4653,0.4666,0.4678,0.4627,0.4567,0.4573,0.4686,0.4533,0.4764,0.476,0.4757,0,0.4084,0.4133,0.4201,0.4215,0.4265,0.4313,0.4343,0.4416,0.449,0.4595,0.4676,0.4787,0.4864,0.4931,0.4926,0.4852,0.5105,0.5022,0.5011,0.5006,0.4863,0.4836,0.4866,0.5174,0.5173,0.5172,0.5172,0,0.417,0.4224,0.4225,0.4257,0.4361,0.4367,0.4485,0.4536,0.4639,0.4753,0.4793,0.4914,0.4967,0.5087,0.5058,0.5146,0.5245,0.507,0.5091,0.4869,0.4841,0.474,0.4683,0.5182,0.518,0.5178,0.5176,0,0.4254,0.4255,0.4337,0.4377,0.4399,0.4468,0.4563,0.4635,0.4733,0.4887,0.4943,0.5085,0.5235,0.5285,0.5408,0.5339,0.5255,0.5404,0.5124,0.5105,0.4893,0.4846,0.4792,0.4659,0.545,0.5451,0.5451,0,0.4326,0.4357,0.4412,0.4456,0.448,0.4556,0.4613,0.4691,0.4763,0.4979,0.5062,0.5264,0.5352,0.5529,0.5468,0.5504,0.5309,0.5307,0.5098,0.4899,0.4866,0.466,0.4536,0.4935,0.4931,0.4928,0.4926,0,0.4424,0.442,0.4434,0.4533,0.4588,0.4687,0.4752,0.4808,0.4908,0.5013,0.5172,0.5266,0.5424,0.5338,0.5381,0.5351,0.5033,0.524,0.5121,0.4556,0.4252,0.4125,0.4742,0.4896,0.4899,0.4902,0.4903,0.4904,0.4475,0.4469,0.4458,0.4555,0.4656,0.4758,0.4732,0.4789,0.4866,0.4886,0.5117,0.5095,0.5133,0.514,0.5104,0.4872,0.4872,0.4665,0.4662,0.4499,0.4244,0.4794,0.4904,0.4907,0.4909,0.4911,0.4913,0,0.4461,0.4412,0.4484,0.4539,0.4621,0.4708,0.4766,0.4658,0.4603,0.4693,0.474,0.4681,0.461,0.4592,0.4476,0.4299,0.4069,0.4171,0.3813,0.3748,0.4325,0.417,0.4018,0.4018,0.4018,0.4018,0.4019,0.4019,0.4432,0.4373,0.436,0.4442,0.4503,0.4452,0.442,0.4311,0.4278,0.4098,0.3972,0.4019,0.4133,0.4142,0.3955,0.3859,0.3561,0.3391,0.3426,0.3806,0.3849,0.3889,0.3727,0.3485,0.3485,0.2626,0.262,0.2615]},{"header":{"parameterUnit":"m.s-1","parameterCategory":2,"la1":30.2991,"la2":30.254,"lo1":-89.0895,"lo2":-89.0444,"dy":0.0017,"dx":0.0017,"nx":28,"ny":28,"refTime":"2024-08-05T03:00:00:Z","depth":"0","parameterNumber":3,"parameterNumberName":"V-component_of_CURRENTS"},"data":[0,0,0,0,0,0,0,0,0,0,0,0,0,0,0,0,0,0,0,0,0,0,0,0,0,0,0,0,0,0,0,0,0,0,0,0,0,0,0,0,0,0,0,0,0,0,0,0,0,0,0,0,0,0,0,0,0,0,0.0243,0.0243,0,0.0178,0.0177,0.0176,0.0118,0.0117,0.0117,0.0116,0.0,-0.0002,-0.0005,0,0,0,0,0,0,0,0,0,0,0,0,0,0.0263,0.0263,0.0243,0.0243,0.0242,0.0178,0.0177,0.0176,0.0118,0.0117,0.0117,0.0116,0.0001,-0.0002,-0.0005,0,0,0,0,0,0,0,0,0,0,0,0,0,0.0229,0.0263,0.0243,0.0207,0.0203,0.0178,0.0177,0.0176,0.0118,0.0117,0.0116,0.0116,0.0002,-0.0002,-0.0005,-0.0016,0,0,-0.0018,-0.0019,0,0,0,0,0,0,0,0,0.0231,0.0228,0.0213,0.021,0.0205,0.0158,0.0142,0.011,0.0118,0.0148,0.0116,0.0115,0.005,0.0043,0.0029,-0.0022,-0.0027,-0.0018,-0.002,-0.0022,-0.0023,0,0,0,0,0,0,0,0.0234,0.0231,0.0215,0.0213,0.0208,0.0176,0.0171,0.0135,0.0101,0.0145,0.0141,0.0138,0.0048,0.0033,0.0025,-0.0029,-0.0018,-0.0021,-0.0024,-0.0026,-0.008,-0.0079,0,0,0,0,0,0,0.0251,0.0233,0.0217,0.0213,0.022,0.0177,0.017,0.0171,0.0102,0.0092,0.0139,0.0136,0.004,0.003,0.0021,0.0033,-0.0022,-0.0026,-0.0028,-0.008,-0.0079,-0.0078,0,0,0,0,0,0,0.0252,0.025,0.0219,0.0223,0.0217,0.0178,0.0179,0.0171,0.016,0.0099,0.0087,0.0138,0.0039,0.0027,0.0004,0.0026,-0.0028,-0.0031,-0.0082,-0.008,-0.0079,0.0037,0,0,0,0,0,0,0.0252,0.0251,0.0255,0.0225,0.0218,0.0219,0.0179,0.017,0.0161,0.0156,0.0094,0.0082,0.0038,0.001,-0.0,0.002,-0.0034,-0.0083,-0.0081,-0.0079,0.0032,0.0042,0.0051,0,0,0,0,0,0.0253,0.0271,0.0255,0.0253,0.0226,0.022,0.0214,0.0181,0.0162,0.0166,0.0126,0.0084,0.0014,0.0008,-0.0005,0.0015,-0.0084,-0.0081,-0.0079,0.0028,0.004,0.0051,0,0,0,0,0,0,0.0281,0.0266,0.0248,0.0259,0.0245,0.0212,0.0212,0.0191,0.0163,0.0156,0.0096,0.0082,0.0066,0.0027,0.0022,0.0004,-0.0042,-0.0042,0.0044,0.0055,0.0064,0.0096,-0.0038,0,0,0,0,0,0.029,0.0299,0.0276,0.0286,0.0281,0.0248,0.024,0.0221,0.0194,0.018,0.0139,0.0096,0.0065,0.0051,0.0011,0.0006,-0.001,0.001,0.0019,0.0028,0.0045,0.0051,0.0063,-0.0071,-0.0071,-0.0071,0,0,0.0301,0.0297,0.0299,0.0293,0.0275,0.0286,0.0241,0.024,0.0253,0.0172,0.0173,0.0124,0.0069,0.0061,0.0052,0.0033,0.0058,0.0031,0.0038,0.0051,0.0055,0.0068,0.008,-0.007,-0.007,-0.007,0,0,0.0345,0.0327,0.0352,0.0347,0.0337,0.0317,0.0324,0.0297,0.0289,0.028,0.023,0.0206,0.0149,0.0129,0.0108,0.0149,0.0103,0.0126,0.0207,0.0213,0.0224,0.0234,0.0239,0.0248,0.0138,0.0138,0.0138,0,0.036,0.039,0.0359,0.0384,0.0393,0.034,0.0375,0.0358,0.033,0.034,0.0295,0.0248,0.0188,0.0208,0.0207,0.0173,0.0165,0.017,0.0228,0.0237,0.0246,0.0248,0.0257,0.0144,0.0143,0.0143,0.0142,0,0.0422,0.0445,0.0461,0.0477,0.0479,0.0499,0.0478,0.0481,0.0454,0.0439,0.0445,0.0375,0.0358,0.0325,0.0268,0.0305,0.0276,0.0236,0.0206,0.0267,0.0264,0.0272,0.0152,0.015,0.0149,0.0147,0,0,0.0466,0.0501,0.051,0.0541,0.0535,0.0551,0.0575,0.0596,0.0634,0.0585,0.0644,0.0563,0.0531,0.0505,0.0446,0.0432,0.0462,0.036,0.0357,0.0377,0.048,0.0428,0.0431,0.0433,0.0435,0.0436,0.0458,0,0.0529,0.0614,0.0607,0.0679,0.0717,0.069,0.0727,0.0734,0.0723,0.076,0.0706,0.0718,0.0602,0.0603,0.0575,0.0496,0.0486,0.046,0.0406,0.0405,0.0362,0.0439,0.0409,0.0423,0.0465,0.0466,0.0467,0,0.0592,0.0647,0.0741,0.0806,0.0821,0.0851,0.0913,0.0939,0.0961,0.0958,0.0959,0.0915,0.0904,0.0789,0.0715,0.0705,0.0603,0.0527,0.0526,0.0445,0.0368,0.0365,0.0434,0.0226,0.0477,0.0476,0.0476,0,0.0658,0.0738,0.0827,0.0845,0.0904,0.0948,0.0975,0.1004,0.1046,0.1096,0.1134,0.1108,0.1116,0.1,0.0826,0.0782,0.0736,0.0662,0.0527,0.0522,0.047,0.0457,0.0343,0.0613,0.0613,0.0613,0.0613,0,0.0725,0.0788,0.0868,0.0916,0.1014,0.1031,0.1125,0.1149,0.1211,0.129,0.1247,0.1317,0.1164,0.1107,0.0923,0.0765,0.082,0.0567,0.0535,0.0507,0.0499,0.029,0.0178,0.0614,0.0613,0.0613,0.0613,0,0.0756,0.0814,0.0915,0.1016,0.1045,0.1112,0.1192,0.1257,0.1319,0.143,0.1459,0.149,0.1451,0.1273,0.1113,0.0907,0.0625,0.0663,0.0639,0.0603,0.0266,0.0164,0.0029,-0.0053,0.0541,0.054,0.0539,0,0.078,0.0842,0.0978,0.1028,0.1066,0.1158,0.1217,0.1295,0.137,0.1538,0.1608,0.1642,0.1689,0.1454,0.1128,0.0854,0.0633,0.059,0.0485,0.0268,0.013,0.0047,-0.0017,0.0466,0.0465,0.0464,0.0463,0,0.0813,0.0865,0.0943,0.1057,0.1135,0.1232,0.1334,0.1422,0.1548,0.1693,0.1893,0.1971,0.178,0.1531,0.1129,0.0903,0.0439,0.0557,0.0347,0.0084,-0.0026,-0.0125,0.0426,0.0453,0.0454,0.0455,0.0455,0.0456,0.0831,0.0874,0.0982,0.108,0.1174,0.1314,0.1424,0.1571,0.1773,0.2035,0.209,0.2264,0.184,0.1335,0.1002,0.0352,0.0379,0.012,0.0025,-0.0031,-0.0147,0.0379,0.0351,0.0351,0.0351,0.0352,0.0352,0,0.0853,0.0899,0.0987,0.1136,0.1253,0.1308,0.1504,0.1655,0.1937,0.2187,0.2397,0.2286,0.1756,0.1197,0.0322,-0.0126,-0.0272,-0.0358,-0.049,-0.0521,-0.0038,-0.0083,-0.0226,-0.0225,-0.0225,-0.0225,-0.0225,-0.0225,0.0874,0.0938,0.0982,0.1178,0.129,0.1489,0.1626,0.1877,0.2091,0.2415,0.2545,0.26,0.2136,0.062,-0.0414,-0.0638,-0.0905,-0.0979,-0.1089,-0.0792,-0.0756,-0.0721,-0.0791,-0.1079,-0.108,-0.1537,-0.1542,-0.1546]}],[{"header":{"parameterUnit":"m.s-1","parameterCategory":2,"la1":30.2991,"la2":30.254,"lo1":-89.0895,"lo2":-89.0444,"dy":0.0017,"dx":0.0017,"nx":28,"ny":28,"refTime":"2024-08-05T03:00:00:Z","depth":"2","parameterNumber":2,"parameterNumberName":"U-component_of_CURRENTS"},"data":[0,0,0,0,0,0,0,0,0,0,0,0,0,0,0,0,0,0,0,0,0,0,0,0,0,0,0,0,0,0,0,0,0,0,0,0,0,0,0,0,0,0,0,0,0,0,0,0,0,0,0,0,0,0,0,0,0,0,0.279,0.2791,0,0.2862,0.2862,0.2863,0.289,0.289,0.289,0.289,0.2923,0.2924,0.2924,0,0,0,0,0,0,0,0,0,0,0,0,0,0.272,0.2721,0.279,0.2791,0.2792,0.2861,0.2862,0.2863,0.289,0.289,0.289,0.289,0.2922,0.2923,0.2925,0,0,0,0,0,0,0,0,0,0,0,0,0,0.2766,0.2721,0.279,0.2815,0.2818,0.2861,0.2862,0.2863,0.289,0.289,0.289,0.289,0.2922,0.2923,0.2925,0.2936,0,0,0.2929,0.293,0,0,0,0,0,0,0,0,0.2763,0.2768,0.281,0.2813,0.2817,0.2868,0.285,0.2886,0.2891,0.2862,0.289,0.289,0.2902,0.2905,0.2917,0.2938,0.2939,0.2929,0.293,0.2931,0.2931,0,0,0,0,0,0,0,0.276,0.2765,0.2817,0.2811,0.2815,0.2838,0.2843,0.2857,0.288,0.2864,0.2867,0.2877,0.2903,0.2916,0.2918,0.294,0.2929,0.293,0.2931,0.2932,0.3026,0.3027,0,0,0,0,0,0,0.2751,0.2762,0.2815,0.2819,0.279,0.2839,0.2845,0.2851,0.2881,0.2886,0.2877,0.2878,0.2914,0.2916,0.2919,0.2974,0.2931,0.2932,0.2933,0.3024,0.3026,0.3028,0,0,0,0,0,0,0.275,0.2755,0.2812,0.2794,0.2803,0.284,0.2846,0.2852,0.2874,0.2891,0.2895,0.2894,0.2914,0.2917,0.2939,0.2974,0.2933,0.2934,0.3022,0.3025,0.3027,0.3058,0,0,0,0,0,0,0.2747,0.2754,0.276,0.2793,0.2803,0.2844,0.2847,0.2854,0.2881,0.2883,0.2906,0.2909,0.2914,0.2937,0.2941,0.2975,0.2935,0.302,0.3023,0.3026,0.3055,0.3061,0.3066,0,0,0,0,0,0.2744,0.276,0.2759,0.2766,0.2808,0.2845,0.2852,0.2877,0.2882,0.2896,0.291,0.2909,0.296,0.2939,0.2943,0.2978,0.3019,0.3022,0.3026,0.3052,0.306,0.3066,0,0,0,0,0,0,0.2733,0.2765,0.2765,0.2788,0.2814,0.285,0.2873,0.2883,0.2907,0.2912,0.2919,0.2923,0.2964,0.2964,0.2941,0.3017,0.2994,0.2999,0.3013,0.302,0.3026,0.3054,0.2936,0,0,0,0,0,0.2731,0.275,0.2778,0.2796,0.2812,0.2841,0.286,0.2876,0.2901,0.2912,0.293,0.2953,0.2983,0.2992,0.3019,0.3046,0.3086,0.3076,0.3082,0.3087,0.3115,0.3191,0.3207,0.304,0.304,0.304,0,0,0.2737,0.2751,0.2766,0.2795,0.2819,0.2848,0.2853,0.2889,0.2919,0.2911,0.2959,0.2976,0.2997,0.3038,0.3057,0.3039,0.3158,0.3092,0.3095,0.3122,0.3197,0.3213,0.3228,0.3042,0.3042,0.3042,0,0,0.2754,0.2767,0.2788,0.2812,0.2847,0.2863,0.2873,0.2915,0.2942,0.2976,0.2993,0.3025,0.3059,0.3087,0.3102,0.3154,0.3191,0.317,0.3215,0.3288,0.3302,0.3316,0.3394,0.3414,0.3165,0.3165,0.3165,0,0.2766,0.2786,0.2801,0.2827,0.2857,0.2869,0.2905,0.2932,0.2976,0.3015,0.2995,0.309,0.3085,0.3162,0.3176,0.3168,0.3226,0.318,0.3296,0.331,0.3323,0.34,0.3421,0.3167,0.3167,0.3167,0.3167,0,0.2793,0.2818,0.2838,0.287,0.2896,0.2935,0.2969,0.3006,0.3028,0.3063,0.3148,0.3156,0.3221,0.3217,0.3206,0.3309,0.3327,0.3298,0.3276,0.3342,0.3418,0.344,0.317,0.3169,0.3169,0.3168,0,0,0.2822,0.2854,0.2863,0.2881,0.293,0.2951,0.3012,0.3078,0.3135,0.3174,0.3262,0.3295,0.3326,0.3348,0.3353,0.3395,0.351,0.339,0.3393,0.3466,0.3702,0.3587,0.36,0.3513,0.3517,0.352,0.372,0,0.2852,0.2894,0.2907,0.2955,0.299,0.3026,0.3083,0.3142,0.3194,0.3278,0.3322,0.3402,0.3371,0.3413,0.3457,0.3509,0.3571,0.346,0.3631,0.3637,0.3524,0.3622,0.3326,0.3469,0.3742,0.3745,0.3748,0,0.2877,0.2909,0.2959,0.3012,0.3033,0.306,0.3161,0.3214,0.3331,0.3385,0.348,0.3528,0.3631,0.357,0.3727,0.3669,0.3704,0.3721,0.3729,0.3631,0.3562,0.3448,0.3499,0.3785,0.3782,0.3779,0.3777,0,0.2877,0.294,0.2975,0.2998,0.3065,0.3105,0.3149,0.3257,0.3324,0.3473,0.3552,0.3676,0.3757,0.3831,0.3874,0.3832,0.4024,0.3964,0.3903,0.3896,0.3681,0.3647,0.4081,0.4081,0.408,0.408,0.4079,0,0.2891,0.2937,0.2979,0.2998,0.306,0.3117,0.3206,0.3271,0.3402,0.3485,0.3618,0.3714,0.3829,0.3938,0.3956,0.4012,0.4108,0.3952,0.3949,0.3682,0.3647,0.3939,0.392,0.4087,0.4085,0.4084,0.4083,0,0.288,0.2919,0.296,0.3025,0.305,0.3095,0.3203,0.3259,0.342,0.3539,0.36,0.3792,0.394,0.4034,0.4157,0.4115,0.4166,0.4152,0.3833,0.3787,0.3976,0.3957,0.4137,0.4135,0.4133,0.4132,0.4131,0,0.2854,0.2885,0.2939,0.2947,0.2973,0.3057,0.3097,0.3243,0.3284,0.3561,0.358,0.382,0.3913,0.4088,0.4068,0.4125,0.4173,0.3858,0.3694,0.4008,0.3988,0.3971,0.3954,0.3441,0.3434,0.3429,0.3424,0,0.2814,0.2848,0.2847,0.2845,0.2872,0.2936,0.2993,0.3067,0.324,0.3352,0.3517,0.3652,0.3851,0.3773,0.3847,0.3818,0.3821,0.3743,0.4196,0.3446,0.336,0.3337,0.3342,0.3374,0.3379,0.3383,0.3386,0.3388,0.2737,0.2732,0.2696,0.2708,0.274,0.2786,0.2809,0.2896,0.298,0.314,0.3309,0.3415,0.3508,0.3473,0.339,0.334,0.3585,0.3421,0.3436,0.3457,0.3314,0.3226,0.3192,0.3195,0.3199,0.3201,0.3204,0,0.2574,0.2623,0.2568,0.2537,0.2539,0.2635,0.2688,0.2681,0.276,0.2918,0.303,0.285,0.2843,0.2947,0.2801,0.2803,0.2746,0.2685,0.2586,0.264,0.2687,0.25,0.2165,0.2161,0.2157,0.2154,0,0,0.2507,0.2457,0.2439,0.2359,0.2394,0.2329,0.2402,0.2425,0.2464,0.2485,0.2523,0.2753,0.288,0.2484,0.244,0.2279,0.243,0.219,0.3036,0.2976,0.3018,0.314,0.2917,0,0,0,0,0]},{"header":{"parameterUnit":"m.s-1","parameterCategory":2,"la1":30.2991,"la2":30.254,"lo1":-89.0895,"lo2":-89.0444,"dy":0.0017,"dx":0.0017,"nx":28,"ny":28,"refTime":"2024-08-05T03:00:00:Z","depth":"2","parameterNumber":3,"parameterNumberName":"V-component_of_CURRENTS"},"data":[0,0,0,0,0,0,0,0,0,0,0,0,0,0,0,0,0,0,0,0,0,0,0,0,0,0,0,0,0,0,0,0,0,0,0,0,0,0,0,0,0,0,0,0,0,0,0,0,0,0,0,0,0,0,0,0,0,0,0.0174,0.0174,0,0.0126,0.0125,0.0124,0.0084,0.0084,0.0083,0.0083,-0.0008,-0.0011,-0.0013,0,0,0,0,0,0,0,0,0,0,0,0,0,0.0171,0.0172,0.0174,0.0174,0.0173,0.0126,0.0125,0.0124,0.0084,0.0084,0.0083,0.0083,-0.0008,-0.001,-0.0013,0,0,0,0,0,0,0,0,0,0,0,0,0,0.0151,0.0172,0.0174,0.0149,0.0147,0.0126,0.0125,0.0124,0.0084,0.0084,0.0083,0.0083,-0.0007,-0.001,-0.0013,-0.0028,0,0,-0.0024,-0.0025,0,0,0,0,0,0,0,0,0.0152,0.015,0.0153,0.0151,0.0148,0.0113,0.009,0.0072,0.0084,0.0105,0.0083,0.0083,0.003,0.0024,0.0012,-0.0032,-0.0036,-0.0024,-0.0026,-0.0027,-0.0028,0,0,0,0,0,0,0,0.0153,0.0152,0.0152,0.0153,0.015,0.012,0.0117,0.0086,0.0067,0.0103,0.0101,0.01,0.0028,0.0016,0.001,-0.0038,-0.0024,-0.0027,-0.0029,-0.003,-0.009,-0.0089,0,0,0,0,0,0,0.0168,0.0154,0.0154,0.0151,0.0152,0.0121,0.0117,0.0122,0.0068,0.0061,0.01,0.0098,0.0021,0.0014,0.0006,0.0007,-0.0027,-0.0031,-0.0033,-0.009,-0.009,-0.0089,0,0,0,0,0,0,0.0168,0.0169,0.0156,0.0153,0.0149,0.0122,0.0127,0.0122,0.0114,0.0067,0.0058,0.0099,0.0021,0.0011,-0.0009,0.0002,-0.0032,-0.0035,-0.0091,-0.009,-0.0089,-0.0006,0,0,0,0,0,0,0.0169,0.0169,0.0176,0.0154,0.015,0.0155,0.0128,0.0121,0.0114,0.0111,0.0063,0.0054,0.002,-0.0003,-0.0012,-0.0003,-0.0038,-0.0091,-0.009,-0.009,-0.0009,-0.0002,0.0004,0,0,0,0,0,0.0169,0.0184,0.0176,0.0176,0.0161,0.0156,0.0151,0.0128,0.0115,0.0118,0.0088,0.0056,-0.0005,-0.0005,-0.0016,-0.0008,-0.0092,-0.0091,-0.009,-0.0012,-0.0003,0.0004,0,0,0,0,0,0,0.018,0.018,0.0172,0.0184,0.0176,0.015,0.0149,0.0135,0.0113,0.0108,0.0063,0.0052,0.0037,0.0004,0.0004,-0.0023,-0.0054,-0.0055,0.0008,0.0016,0.0022,0.0044,-0.0041,0,0,0,0,0,0.0188,0.0203,0.0192,0.0201,0.0199,0.0175,0.0169,0.0156,0.0136,0.0125,0.0094,0.0059,0.0032,0.0017,-0.0014,-0.0027,-0.0055,-0.003,-0.0024,-0.0018,-0.0007,-0.0038,-0.0033,-0.0086,-0.0086,-0.0086,0,0,0.0192,0.0197,0.0203,0.0205,0.0193,0.0199,0.017,0.0169,0.0176,0.0118,0.0115,0.008,0.0033,0.0021,0.0011,-0.0005,-0.0017,-0.0017,-0.0011,-0.0004,-0.0037,-0.0032,-0.0027,-0.0085,-0.0085,-0.0085,0,0,0.0215,0.0215,0.0235,0.0236,0.0232,0.0218,0.0223,0.0205,0.02,0.0191,0.0154,0.0132,0.0086,0.0063,0.0043,0.0064,0.0017,0.0049,0.0099,0.007,0.0074,0.0077,0.0054,0.0055,0.0053,0.0053,0.0053,0,0.022,0.0247,0.0238,0.0257,0.0264,0.0233,0.0253,0.0243,0.0222,0.0225,0.02,0.0149,0.0108,0.01,0.0106,0.008,0.0056,0.0077,0.0079,0.0082,0.0084,0.0059,0.0059,0.0057,0.0057,0.0056,0.0056,0,0.0258,0.0279,0.0291,0.0308,0.0312,0.0325,0.0314,0.0316,0.03,0.0287,0.0278,0.0226,0.02,0.0179,0.0147,0.0146,0.0123,0.0092,0.0065,0.0095,0.0066,0.0064,0.0063,0.0062,0.006,0.0059,0,0,0.0271,0.0312,0.0316,0.0342,0.0345,0.0357,0.037,0.0378,0.0399,0.0364,0.0387,0.0331,0.0306,0.0282,0.024,0.021,0.0201,0.0165,0.0161,0.0151,0.0141,0.0089,0.0082,0.017,0.017,0.017,0.0118,0,0.0304,0.0367,0.0369,0.0418,0.0447,0.0434,0.0456,0.0459,0.0449,0.0462,0.0414,0.0413,0.0345,0.0343,0.0302,0.0232,0.0199,0.0218,0.0106,0.0103,0.006,0.0079,0.0106,0.0058,0.0116,0.0115,0.0115,0,0.0339,0.0383,0.0448,0.0498,0.0508,0.0528,0.0565,0.0584,0.0586,0.058,0.0562,0.0526,0.0494,0.0428,0.0322,0.0338,0.0251,0.0183,0.0179,0.0101,0.0047,0.0035,0.0052,0.0111,0.0112,0.0112,0.0112,0,0.0378,0.0434,0.0497,0.0515,0.0562,0.0588,0.0608,0.0621,0.0664,0.0666,0.0695,0.0628,0.0624,0.0502,0.036,0.0347,0.0233,0.0194,0.0064,0.0059,0.0045,0.0039,0.0114,0.0114,0.0114,0.0114,0.0114,0,0.0419,0.0462,0.0525,0.0564,0.064,0.0647,0.0723,0.0731,0.0769,0.0844,0.077,0.081,0.0643,0.0558,0.0403,0.0232,0.0263,0.008,0.0043,0.0074,0.0071,0.0084,0.0081,0.0112,0.0113,0.0113,0.0113,0,0.0447,0.0484,0.0569,0.0643,0.0667,0.0728,0.0812,0.0867,0.089,0.0988,0.1004,0.0958,0.0851,0.0659,0.0468,0.0305,0.0132,0.0057,0.0106,0.0075,-0.0031,-0.0029,-0.0081,-0.0083,-0.0085,-0.0086,-0.0088,0,0.0468,0.052,0.0642,0.0699,0.0733,0.0819,0.0883,0.0929,0.1007,0.109,0.1154,0.1082,0.1051,0.0735,0.0436,0.015,0.0116,-0.0025,-0.0058,-0.002,-0.0051,-0.0045,-0.0041,-0.0038,-0.0039,-0.0039,-0.004,0,0.0513,0.0566,0.0646,0.0776,0.0857,0.0966,0.1067,0.1153,0.1236,0.132,0.1418,0.1397,0.1102,0.0815,0.0394,0.0198,0.0018,-0.005,-0.0011,-0.0002,0.0013,-0.0015,-0.001,-0.0046,-0.0045,-0.0045,-0.0045,-0.0044,0.0559,0.0624,0.0743,0.0862,0.0965,0.1114,0.123,0.1351,0.1507,0.1646,0.1601,0.1568,0.122,0.0686,0.0331,-0.0038,-0.0017,-0.0147,-0.0141,-0.0136,-0.0131,-0.0121,-0.0203,-0.0204,-0.0204,-0.0204,-0.0204,0,0.0609,0.069,0.081,0.0991,0.1123,0.1162,0.1356,0.1478,0.1689,0.1756,0.1817,0.148,0.1136,0.0739,0.019,-0.0147,-0.0157,-0.0252,-0.0183,-0.0175,-0.0168,-0.0162,-0.0245,-0.0246,-0.0247,-0.0248,0,0,0.0642,0.0756,0.0828,0.1082,0.1213,0.142,0.1538,0.1713,0.1805,0.1869,0.1835,0.1728,0.1245,0.084,0.0385,0.0074,0.0027,0.0009,0.0077,0.022,0.0231,-0.0074,-0.0052,0,0,0,0,0]}],[{"header":{"parameterUnit":"m.s-1","parameterCategory":2,"la1":30.2991,"la2":30.254,"lo1":-89.0895,"lo2":-89.0444,"dy":0.0017,"dx":0.0017,"nx":28,"ny":28,"refTime":"2024-08-05T03:00:00:Z","depth":"4","parameterNumber":2,"parameterNumberName":"U-component_of_CURRENTS"},"data":[0,0,0,0,0,0,0,0,0,0,0,0,0,0,0,0,0,0,0,0,0,0,0,0,0,0,0,0,0,0,0,0,0,0,0,0,0,0,0,0,0,0,0,0,0,0,0,0,0,0,0,0,0,0,0,0,0,0,0.1661,0.1662,0,0.1708,0.1708,0.1708,0.1747,0.1748,0.1749,0.1749,0.181,0.1811,0.1812,0,0,0,0,0,0,0,0,0,0,0,0,0,0.1563,0.1564,0.1661,0.1662,0.1663,0.1708,0.1708,0.1708,0.1747,0.1748,0.1749,0.175,0.181,0.1811,0.1812,0,0,0,0,0,0,0,0,0,0,0,0,0,0.1602,0.1564,0.1661,0.1691,0.1695,0.1708,0.1708,0.1708,0.1746,0.1748,0.1749,0.175,0.181,0.1811,0.1812,0.1793,0,0,0.1816,0.1816,0,0,0,0,0,0,0,0,0.16,0.1605,0.1686,0.1689,0.1693,0.1727,0.1696,0.1739,0.1746,0.1721,0.1749,0.1751,0.1786,0.1789,0.1788,0.1796,0.1798,0.1816,0.1816,0.1817,0.1817,0,0,0,0,0,0,0,0.1597,0.1603,0.1674,0.1687,0.1692,0.1689,0.1696,0.1704,0.1742,0.1724,0.1728,0.1741,0.1788,0.1786,0.179,0.1799,0.1816,0.1817,0.1817,0.1818,0.1922,0.1924,0,0,0,0,0,0,0.1603,0.1601,0.1673,0.1676,0.1655,0.169,0.1697,0.1711,0.1742,0.1749,0.174,0.1743,0.1784,0.1788,0.1792,0.1873,0.1817,0.1818,0.1819,0.192,0.1922,0.1924,0,0,0,0,0,0,0.16,0.1608,0.1671,0.1643,0.1652,0.1691,0.1705,0.1711,0.175,0.1755,0.1762,0.1778,0.1785,0.179,0.1835,0.1872,0.1819,0.182,0.1917,0.192,0.1923,0.1971,0,0,0,0,0,0,0.1597,0.1607,0.163,0.1644,0.1654,0.1701,0.1705,0.1711,0.1756,0.1761,0.1789,0.1794,0.1786,0.1833,0.1836,0.1873,0.1821,0.1915,0.1919,0.1922,0.1967,0.1975,0.1982,0,0,0,0,0,0.1593,0.1612,0.163,0.164,0.168,0.1703,0.1707,0.1735,0.1757,0.1775,0.1801,0.1795,0.186,0.1835,0.1838,0.1876,0.1913,0.1918,0.1922,0.1963,0.1973,0.1982,0,0,0,0,0,0,0.1575,0.1618,0.1639,0.1669,0.1698,0.1712,0.1736,0.1757,0.179,0.1811,0.1812,0.1818,0.1876,0.1871,0.1844,0.1921,0.1889,0.1894,0.1919,0.1929,0.1937,0.1955,0.1822,0,0,0,0,0,0.1583,0.1617,0.1648,0.1678,0.1695,0.1724,0.1744,0.1769,0.1796,0.1814,0.1833,0.1862,0.1889,0.1906,0.1927,0.1959,0.1976,0.1991,0.1999,0.2005,0.2025,0.2084,0.2098,0.1939,0.1939,0.1939,0,0,0.1588,0.1616,0.1638,0.1679,0.1704,0.1733,0.1739,0.1785,0.182,0.1814,0.1873,0.1894,0.1907,0.195,0.1975,0.1954,0.2058,0.2011,0.2016,0.2032,0.209,0.2105,0.2119,0.1943,0.1942,0.1942,0,0,0.16,0.1638,0.1667,0.1694,0.1747,0.1765,0.1789,0.1829,0.186,0.1912,0.1925,0.1973,0.2004,0.2023,0.2035,0.21,0.2103,0.2112,0.2158,0.2215,0.2229,0.2241,0.2274,0.2288,0.2109,0.2109,0.2109,0,0.1605,0.1646,0.1678,0.1708,0.174,0.1786,0.182,0.1853,0.1906,0.1939,0.1945,0.203,0.204,0.2098,0.2123,0.2119,0.2146,0.2115,0.2225,0.2237,0.2249,0.228,0.2295,0.2111,0.2111,0.2111,0.2111,0,0.1627,0.1673,0.1692,0.1749,0.1784,0.1826,0.1875,0.1925,0.1974,0.2007,0.2093,0.2113,0.2169,0.2176,0.2169,0.2257,0.2248,0.2231,0.2197,0.2268,0.2295,0.2311,0.2116,0.2115,0.2114,0.2113,0,0,0.16,0.1691,0.1701,0.1737,0.1816,0.1839,0.1915,0.1983,0.2038,0.2103,0.2171,0.2231,0.2265,0.2283,0.229,0.2331,0.2426,0.2322,0.2323,0.2348,0.2549,0.2375,0.2375,0.2432,0.2435,0.2438,0.2531,0,0.1611,0.1671,0.1719,0.1786,0.1823,0.1892,0.195,0.2024,0.2091,0.2164,0.2226,0.2295,0.2299,0.2337,0.2388,0.2425,0.2471,0.2402,0.2483,0.2486,0.2318,0.2389,0.2448,0.2542,0.2546,0.2548,0.255,0,0.1609,0.1657,0.1721,0.1813,0.1835,0.1886,0.1993,0.2054,0.2169,0.2224,0.2321,0.2369,0.2471,0.2448,0.2576,0.2537,0.2561,0.2573,0.2577,0.2412,0.2341,0.2461,0.2578,0.2576,0.2574,0.2572,0.257,0,0.1558,0.1653,0.1706,0.1737,0.1845,0.19,0.1972,0.2084,0.2145,0.2282,0.2342,0.2463,0.2541,0.2608,0.2662,0.2638,0.2772,0.2734,0.26,0.2588,0.2693,0.268,0.2823,0.2822,0.2822,0.2822,0.2822,0,0.1527,0.1573,0.1695,0.172,0.1785,0.1887,0.198,0.2054,0.2189,0.2257,0.2384,0.2456,0.2592,0.2676,0.2703,0.2703,0.282,0.2628,0.2608,0.2709,0.2696,0.2703,0.2688,0.2825,0.2825,0.2824,0.2823,0,0.1444,0.1527,0.1593,0.1722,0.176,0.1812,0.1968,0.2021,0.2178,0.2274,0.2327,0.2497,0.2614,0.2704,0.2811,0.274,0.2756,0.2721,0.2831,0.2813,0.2523,0.251,0.2584,0.2579,0.2575,0.2571,0.2568,0,0.1379,0.1416,0.1563,0.1585,0.1645,0.1754,0.1807,0.1984,0.2046,0.2274,0.2291,0.2475,0.2567,0.2597,0.27,0.2737,0.2702,0.2678,0.2594,0.253,0.2504,0.2498,0.249,0.2561,0.256,0.2559,0.2558,0,0.1255,0.1345,0.1406,0.1476,0.1534,0.1601,0.1712,0.1753,0.1953,0.2112,0.222,0.2299,0.242,0.251,0.2553,0.2571,0.2674,0.2632,0.264,0.256,0.2502,0.248,0.2478,0.2542,0.2545,0.2546,0.2547,0,0.1155,0.1185,0.1288,0.1338,0.1393,0.1421,0.1516,0.1616,0.1722,0.1978,0.2019,0.2222,0.2403,0.2425,0.2469,0.2471,0.2432,0.233,0.2353,0.2371,0.2255,0.2147,0.2077,0,0,0,0,0,0.1046,0.1087,0.1123,0.1182,0.1234,0.1286,0.1416,0.1528,0.1739,0.1754,0.1891,0.2,0.2105,0.222,0.2182,0.2352,0.2418,0.2292,0.2306,0.2458,0.2476,0.2356,0,0,0,0,0,0,0.0976,0.1025,0.1086,0.1036,0.1048,0.1103,0.1193,0.134,0.1386,0.161,0.1693,0.1856,0.1999,0.2108,0.2139,0.2166,0.2126,0.2422,0.2416,0.2448,0.2464,0.2478,0.2362,0,0,0,0,0]},{"header":{"parameterUnit":"m.s-1","parameterCategory":2,"la1":30.2991,"la2":30.254,"lo1":-89.0895,"lo2":-89.0444,"dy":0.0017,"dx":0.0017,"nx":28,"ny":28,"refTime":"2024-08-05T03:00:00:Z","depth":"4","parameterNumber":3,"parameterNumberName":"V-component_of_CURRENTS"},"data":[0,0,0,0,0,0,0,0,0,0,0,0,0,0,0,0,0,0,0,0,0,0,0,0,0,0,0,0,0,0,0,0,0,0,0,0,0,0,0,0,0,0,0,0,0,0,0,0,0,0,0,0,0,0,0,0,0,0,0.0147,0.0147,0,0.0126,0.0126,0.0126,0.011,0.011,0.011,0.011,0.0058,0.0057,0.0056,0,0,0,0,0,0,0,0,0,0,0,0,0,0.0138,0.0138,0.0147,0.0147,0.0147,0.0126,0.0126,0.0126,0.011,0.011,0.011,0.011,0.0059,0.0057,0.0055,0,0,0,0,0,0,0,0,0,0,0,0,0,0.0131,0.0138,0.0147,0.0137,0.0136,0.0126,0.0126,0.0126,0.011,0.011,0.011,0.011,0.0059,0.0057,0.0055,0.0045,0,0,0.0049,0.0048,0,0,0,0,0,0,0,0,0.0132,0.0131,0.0139,0.0138,0.0137,0.0121,0.0104,0.0097,0.011,0.0119,0.011,0.011,0.0077,0.0074,0.0069,0.0043,0.004,0.0049,0.0048,0.0047,0.0046,0,0,0,0,0,0,0,0.0132,0.0132,0.0138,0.0139,0.0137,0.0121,0.0121,0.0102,0.0098,0.0118,0.0117,0.0116,0.0076,0.0071,0.0068,0.004,0.0049,0.0047,0.0046,0.0045,0.0002,0.0002,0,0,0,0,0,0,0.0138,0.0133,0.0139,0.0138,0.0135,0.0122,0.0121,0.0126,0.0099,0.0095,0.0116,0.0116,0.0075,0.007,0.0066,0.0062,0.0047,0.0045,0.0044,0.0002,0.0002,0.0002,0,0,0,0,0,0,0.0138,0.0139,0.014,0.0135,0.0134,0.0123,0.0128,0.0125,0.0125,0.0098,0.0093,0.0119,0.0074,0.0069,0.0057,0.006,0.0044,0.0042,0.0002,0.0002,0.0002,0.0048,0,0,0,0,0,0,0.0138,0.014,0.0146,0.0136,0.0134,0.0141,0.0128,0.0125,0.0125,0.0123,0.0098,0.0093,0.0074,0.006,0.0055,0.0057,0.0041,0.0002,0.0002,0.0002,0.0047,0.005,0.0052,0,0,0,0,0,0.0138,0.0148,0.0146,0.0147,0.0143,0.0141,0.0139,0.013,0.0125,0.0128,0.0112,0.0094,0.0057,0.0059,0.0053,0.0054,0.0002,0.0002,0.0002,0.0045,0.0049,0.0052,0,0,0,0,0,0,0.0143,0.0148,0.0145,0.0155,0.0151,0.0139,0.014,0.0135,0.0125,0.0123,0.0098,0.0091,0.0082,0.0061,0.0064,0.004,0.0025,0.0024,0.006,0.0063,0.0066,0.0076,0.0039,0,0,0,0,0,0.0149,0.0161,0.0156,0.0164,0.0164,0.0153,0.0151,0.0146,0.0136,0.0132,0.0115,0.0094,0.0076,0.0066,0.0048,0.0036,0.0006,0.0031,0.0034,0.0037,0.004,-0.0002,-0.0003,0.0003,0.0003,0.0003,0,0,0.0151,0.0157,0.0162,0.0167,0.0162,0.0166,0.0152,0.0154,0.0158,0.0127,0.0127,0.0106,0.0076,0.0065,0.0058,0.0049,0.0018,0.0037,0.0039,0.0041,-0.0002,-0.0003,-0.0003,0.0003,0.0003,0.0003,0,0,0.0163,0.0169,0.0181,0.0184,0.0184,0.0179,0.0182,0.0175,0.0172,0.0169,0.0147,0.013,0.0105,0.0084,0.007,0.0077,0.0037,0.0069,0.009,0.0049,0.0048,0.0047,0.0005,0.0,0.0068,0.0068,0.0068,0,0.0165,0.0184,0.0183,0.0195,0.0201,0.0187,0.0199,0.0194,0.0185,0.0183,0.0174,0.0136,0.0113,0.0094,0.0099,0.0084,0.0054,0.0081,0.0053,0.0052,0.005,0.0007,0.0001,0.007,0.007,0.007,0.007,0,0.0185,0.0202,0.0209,0.0224,0.0227,0.0236,0.0231,0.0234,0.0228,0.0218,0.0204,0.0171,0.0149,0.0136,0.012,0.0098,0.0078,0.0065,0.0047,0.0052,0.0007,-0.0001,0.0074,0.0073,0.0072,0.0072,0,0,0.0185,0.0218,0.0221,0.0242,0.0246,0.0257,0.0262,0.0264,0.0272,0.025,0.0253,0.0216,0.0197,0.018,0.0152,0.0117,0.0078,0.0091,0.0087,0.0054,-0.0016,-0.0023,-0.0032,0.0059,0.0058,0.0057,-0.0043,0,0.02,0.0243,0.0248,0.0283,0.0303,0.0299,0.031,0.0309,0.0299,0.0297,0.0257,0.0249,0.0214,0.0208,0.0166,0.0105,0.0061,0.0107,-0.002,-0.0024,-0.0027,-0.004,0.0054,-0.0049,-0.005,-0.0052,-0.0053,0,0.0217,0.0248,0.0292,0.0332,0.0339,0.0354,0.0374,0.0386,0.0371,0.0361,0.0333,0.0301,0.0256,0.0227,0.0111,0.0141,0.0069,0.0013,0.0007,-0.0019,-0.0044,-0.0056,-0.0066,-0.0065,-0.0064,-0.0063,-0.0063,0,0.024,0.0278,0.0323,0.0336,0.0372,0.0391,0.0408,0.0406,0.0435,0.0408,0.0413,0.0338,0.0323,0.0213,0.01,0.0104,-0.0034,-0.0047,-0.0128,-0.013,-0.0113,-0.0111,-0.0136,-0.0136,-0.0135,-0.0135,-0.0135,0,0.0265,0.0297,0.0341,0.0373,0.0428,0.0432,0.0488,0.0486,0.0499,0.054,0.0458,0.0463,0.0321,0.023,0.0108,-0.0032,-0.0035,-0.0128,-0.0156,-0.0092,-0.0086,-0.0118,-0.0115,-0.0139,-0.0138,-0.0137,-0.0137,0,0.0287,0.0314,0.0378,0.043,0.0451,0.0497,0.0571,0.0606,0.0598,0.0647,0.0646,0.0564,0.0436,0.0273,0.0098,-0.0004,-0.0151,-0.0202,-0.0123,-0.0145,-0.0223,-0.0216,-0.0304,-0.0305,-0.0306,-0.0306,-0.0307,0,0.0311,0.0348,0.0436,0.0486,0.0516,0.0586,0.0639,0.0664,0.071,0.0714,0.0742,0.0634,0.0557,0.0299,0.0113,-0.0145,-0.0175,-0.0259,-0.0242,-0.0222,-0.0241,-0.0233,-0.0225,-0.0309,-0.0309,-0.0309,-0.0309,0,0.0356,0.0387,0.0442,0.055,0.0622,0.0711,0.0786,0.0828,0.0861,0.0852,0.083,0.0691,0.0544,0.0324,0.0116,-0.0065,-0.0212,-0.027,-0.0269,-0.0253,-0.0229,-0.0245,-0.0236,-0.0313,-0.0312,-0.0312,-0.0312,0,0.0395,0.0438,0.0516,0.061,0.0712,0.0808,0.0843,0.0893,0.0938,0.093,0.0925,0.0747,0.065,0.0366,0.0178,-0.0012,-0.0056,-0.0111,-0.0119,-0.0118,-0.0039,0.0021,-0.0013,0,0,0,0,0,0.0425,0.0472,0.0566,0.0679,0.0784,0.0841,0.0931,0.0953,0.0981,0.0983,0.0959,0.0819,0.0541,0.0417,0.0228,0.0145,-0.0103,-0.0085,-0.0174,-0.033,-0.0327,-0.0266,0,0,0,0,0,0,0.0446,0.0519,0.0566,0.0721,0.0805,0.0923,0.0983,0.0997,0.0997,0.0988,0.0844,0.0773,0.0498,0.0654,0.0226,0.0166,0.0084,-0.0218,-0.0222,-0.0333,-0.0329,-0.0326,-0.0263,0,0,0,0,0]}]]